Weather History for Oscoda, MI

Change the Weather History Date:

Sunday, August 24, 2014

  Actual Average Record
Temperature  
Mean Temperature 65 °F -  
Max Temperature 71 °F 74 °F 89 °F (1998)
Min Temperature 59 °F 55 °F 46 °F (2003)
Growing Degree Days 15 (Base 50)    
Moisture  
Dew Point 64 °F    
Average Humidity 91    
Maximum Humidity 100    
Minimum Humidity 75    
Precipitation  
Precipitation 0.00 in - - ()
Sea Level Pressure  
Sea Level Pressure 30.13 in    
Wind  
Wind Speed 5 mph (East)    
Max Wind Speed 12 mph    
Max Gust Speed 24 mph    
Visibility 9 miles    
Events      
Averages and records for this station are not official NWS values.
T = Trace of Precipitation, MM = Missing Value Source: NWS Daily Summary

Daily Weather History Graph

Daily Weather History Graph

Search for Another Location

Airport:

Trip Planner

Search our weather history database for the weather conditions in past years. The results will help you decide how hot, cold, wet, or windy it might be!

Date:

Astronomy

Aug. 24, 2014 Rise Set
Actual Time 6:46 AM EDT 8:24 PM EDT
Civil Twilight 6:16 AM EDT 8:54 PM EDT
Nautical Twilight 5:39 AM EDT 9:31 PM EDT
Astronomical Twilight 4:58 AM EDT 10:11 PM EDT
Moon 5:56 AM EDT (8/24) 7:40 PM EDT (8/24)
Length of Visible Light 14h 38m
Length of Day
13h 37m
Waning Crescent, 1% of the Moon is Illuminated
Aug 24
Waning Crescent
Aug 25
New
Sep 2
First Quarter
Sep 8
Full
Sep 15
Last Quarter

Hourly Weather History & Observations

Time (EDT) Temp. Dew Point Humidity Pressure Visibility Wind Dir Wind Speed Gust Speed Precip Events Conditions
12:13 AM 61.9 °F 61.5 °F 99% 30.11 in 7.0 mi North 3.5 mph - N/A   Clear
12:34 AM 61.5 °F 61.2 °F 99% 30.11 in 7.0 mi North 4.6 mph - N/A   Clear
12:54 AM 61.7 °F 61.3 °F 99% 30.12 in 10.0 mi Calm Calm - N/A   Clear
1:13 AM 60.8 °F 60.3 °F 98% 30.12 in 7.0 mi Calm Calm - N/A   Clear
1:34 AM 61.3 °F 61.3 °F 100% 30.11 in 10.0 mi NE 3.5 mph - N/A   Scattered Clouds
1:54 AM 63.0 °F 62.6 °F 99% 30.12 in 10.0 mi Calm Calm - N/A   Scattered Clouds
2:14 AM 63.1 °F 62.8 °F 99% 30.11 in 10.0 mi ESE 3.5 mph - N/A   Scattered Clouds
2:34 AM 66.6 °F 65.3 °F 96% 30.12 in 10.0 mi SE 3.5 mph - N/A   Clear
2:54 AM 60.8 °F 59.7 °F 96% 30.12 in 10.0 mi WSW 4.6 mph - N/A   Scattered Clouds
3:14 AM 62.6 °F 62.2 °F 99% 30.12 in 10.0 mi Calm Calm - N/A   Overcast
3:34 AM 64.0 °F 63.7 °F 99% 30.12 in 10.0 mi ENE 3.5 mph - N/A   Overcast
3:54 AM 64.6 °F 64.2 °F 99% 30.11 in 10.0 mi ENE 3.5 mph - N/A   Overcast
4:14 AM 65.3 °F 65.1 °F 99% 30.11 in 10.0 mi Calm Calm - N/A   Overcast
4:34 AM 66.6 °F 65.5 °F 96% 30.11 in 10.0 mi Calm Calm - N/A   Mostly Cloudy
4:54 AM 61.3 °F 60.6 °F 97% 30.11 in 7.0 mi Calm Calm - N/A   Scattered Clouds
5:14 AM 60.3 °F 59.7 °F 98% 30.11 in - Calm Calm - N/A   Unknown
5:34 AM 59.2 °F 58.8 °F 99% 30.12 in - ENE 3.5 mph - N/A   Mostly Cloudy
5:54 AM 65.1 °F 64.9 °F 99% 30.12 in 5.0 mi East 3.5 mph - N/A   Mostly Cloudy
6:14 AM 65.7 °F 64.4 °F 96% 30.12 in 10.0 mi ESE 6.9 mph - N/A   Mostly Cloudy
6:34 AM 65.5 °F 63.9 °F 94% 30.13 in 7.0 mi ESE 5.8 mph - N/A   Scattered Clouds
6:54 AM 65.3 °F 64.2 °F 96% 30.13 in 7.0 mi East 6.9 mph - N/A   Clear
7:14 AM 65.3 °F 64.0 °F 96% 30.14 in 7.0 mi East 6.9 mph - N/A   Scattered Clouds
7:34 AM 65.8 °F 64.2 °F 94% 30.15 in 10.0 mi East 6.9 mph - N/A   Mostly Cloudy
7:54 AM 65.8 °F 63.9 °F 93% 30.15 in 10.0 mi ESE 9.2 mph - N/A   Overcast
8:14 AM 65.8 °F 64.0 °F 94% 30.15 in 10.0 mi ESE 6.9 mph - N/A   Overcast
8:34 AM 65.7 °F 63.9 °F 94% 30.15 in 10.0 mi East 5.8 mph - N/A   Overcast
8:54 AM 65.7 °F 63.7 °F 93% 30.15 in 10.0 mi ESE 6.9 mph - N/A   Overcast
9:14 AM 65.8 °F 63.7 °F 93% 30.15 in 7.0 mi ESE 4.6 mph - N/A   Overcast
9:34 AM 65.8 °F 63.7 °F 93% 30.15 in 7.0 mi East 6.9 mph - N/A   Overcast
9:54 AM 66.4 °F 64.0 °F 92% 30.15 in 7.0 mi East 5.8 mph - N/A   Overcast
10:14 AM 66.7 °F 64.0 °F 91% 30.15 in 7.0 mi East 6.9 mph - N/A   Overcast
10:34 AM 67.3 °F 64.2 °F 90% 30.15 in 7.0 mi ESE 6.9 mph - N/A   Overcast
10:54 AM 67.5 °F 63.7 °F 88% 30.15 in 7.0 mi ESE 6.9 mph - N/A   Overcast
11:14 AM 67.1 °F 63.9 °F 89% 30.15 in 7.0 mi ESE 6.9 mph - N/A   Overcast
11:34 AM 67.1 °F 64.2 °F 90% 30.15 in 7.0 mi ESE 5.8 mph - N/A   Overcast
11:54 AM 66.4 °F 64.4 °F 93% 30.15 in 4.0 mi ESE 4.6 mph - N/A   Overcast
12:14 PM 66.2 °F 64.8 °F 95% 30.15 in 2.5 mi East 4.6 mph - N/A   Overcast
12:34 PM 66.4 °F 65.3 °F 96% 30.15 in 1.5 mi East 5.8 mph - N/A   Overcast
12:54 PM 66.6 °F 64.4 °F 93% 30.15 in 5.0 mi ESE 8.1 mph - N/A   Overcast
1:14 PM 66.2 °F 64.8 °F 95% 30.15 in 1.8 mi ESE 9.2 mph - N/A   Overcast
1:33 PM 66.6 °F 64.6 °F 93% 30.15 in 5.0 mi East 6.9 mph - N/A   Overcast
1:54 PM 67.1 °F 64.2 °F 90% 30.15 in 7.0 mi ESE 8.1 mph - N/A   Overcast
2:14 PM 67.3 °F 64.4 °F 90% 30.15 in 10.0 mi ESE 8.1 mph - N/A   Overcast
2:33 PM 69.1 °F 64.6 °F 86% 30.15 in 10.0 mi North - - N/A   Overcast
2:54 PM 69.3 °F 64.6 °F 85% 30.15 in 10.0 mi ESE 8.1 mph - N/A   Overcast
3:14 PM 70.2 °F 64.0 °F 81% 30.14 in 10.0 mi ESE 9.2 mph - N/A   Overcast
3:33 PM 71.2 °F 64.0 °F 78% 30.13 in 10.0 mi ESE 10.4 mph - N/A   Overcast
3:54 PM 71.8 °F 63.5 °F 75% 30.13 in 10.0 mi ESE 10.4 mph - N/A   Mostly Cloudy
4:14 PM 70.2 °F 63.7 °F 80% 30.13 in 10.0 mi ESE 10.4 mph - N/A   Scattered Clouds
4:33 PM 69.8 °F 63.7 °F 81% 30.12 in 10.0 mi ESE 9.2 mph - N/A   Clear
4:54 PM 70.0 °F 63.7 °F 80% 30.12 in 10.0 mi ESE 9.2 mph - N/A   Mostly Cloudy
5:14 PM 69.8 °F 63.1 °F 79% 30.12 in 10.0 mi ESE 11.5 mph - N/A   Overcast
5:33 PM 70.0 °F 62.6 °F 77% 30.12 in 10.0 mi ESE 8.1 mph - N/A   Mostly Cloudy
5:54 PM 69.1 °F 63.5 °F 82% 30.12 in 10.0 mi ESE 9.2 mph 24.2 mph N/A   Scattered Clouds
6:14 PM 68.5 °F 63.7 °F 84% 30.12 in 10.0 mi ESE 8.1 mph - N/A   Clear
6:33 PM 68.7 °F 63.9 °F 84% 30.12 in 10.0 mi East 8.1 mph - N/A   Clear
6:54 PM 68.4 °F 63.9 °F 85% 30.11 in 10.0 mi East 9.2 mph - N/A   Clear
7:14 PM 68.0 °F 63.7 °F 86% 30.11 in 10.0 mi East 6.9 mph - N/A   Clear
7:33 PM 67.6 °F 63.5 °F 87% 30.11 in 10.0 mi East 4.6 mph - N/A   Clear
7:54 PM 67.3 °F 63.5 °F 88% 30.11 in 10.0 mi East 4.6 mph - N/A   Clear
8:14 PM 66.6 °F 63.7 °F 90% 30.12 in 10.0 mi East 3.5 mph - N/A   Clear
8:33 PM 65.7 °F 63.5 °F 93% 30.11 in 10.0 mi NE 4.6 mph - N/A   Clear
8:54 PM 64.9 °F 63.5 °F 95% 30.11 in 10.0 mi NE 4.6 mph - N/A   Clear
9:14 PM 65.3 °F 63.9 °F 95% 30.11 in 7.0 mi ENE 4.6 mph - N/A   Mostly Cloudy
9:33 PM 65.8 °F 64.0 °F 94% 30.12 in 10.0 mi ENE 4.6 mph - N/A   Overcast
9:54 PM 66.7 °F 64.0 °F 91% 30.11 in 10.0 mi East 5.8 mph - N/A   Overcast
10:14 PM 67.1 °F 63.9 °F 89% 30.11 in 10.0 mi ESE 5.8 mph - N/A   Overcast
10:34 PM 67.1 °F 63.5 °F 88% 30.11 in 10.0 mi East 4.6 mph - N/A   Overcast
10:54 PM 67.1 °F 63.5 °F 88% 30.10 in 10.0 mi ESE 5.8 mph - N/A   Overcast
11:14 PM 66.7 °F 63.5 °F 89% 30.11 in 10.0 mi ESE 4.6 mph - N/A   Mostly Cloudy
11:34 PM 66.9 °F 63.3 °F 88% 30.10 in 10.0 mi ESE 4.6 mph - N/A   Mostly Cloudy
11:54 PM 66.7 °F 63.5 °F 89% 30.10 in 10.0 mi ESE 3.5 mph - N/A   Scattered Clouds